Gallup, NM

3:38 PM MDT on May 25, 2017 (GMT -0600)
Gallup Municipal

Weather History for KGUP - December, 2013

Change the Weather History Date:

Thursday, December 19, 2013

  Actual Average Record
Temperature  
Mean Temperature 38 °F -  
Max Temperature 51 °F 42 °F 59 °F (1979)
Min Temperature 25 °F 10 °F -11 °F (1992)
Degree Days  
Heating Degree Days 27    
Moisture  
Dew Point 20 °F    
Average Humidity 53    
Maximum Humidity 79    
Minimum Humidity 27    
Precipitation  
Precipitation 0.00 in - - ()
Sea Level Pressure  
Sea Level Pressure 29.74 in    
Wind  
Wind Speed 7 mph (SSW)    
Max Wind Speed 23 mph    
Max Gust Speed 34 mph    
Averages and records for this station are not official NWS values.
T = Trace of Precipitation, MM = Missing Value Source: NWS Daily Summary

Daily Weather History Graph

Daily Weather History Graph

Search for Another Location

Airport or City:

Trip Planner

Search our weather history database for the weather conditions in past years. The results will help you decide how hot, cold, wet, or windy it might be!

Date:

Astronomy

Dec. 19, 2013 Rise Set
Actual Time 7:19 AM MST 5:05 PM MST
Civil Twilight 6:51 AM MST 5:33 PM MST
Nautical Twilight 6:19 AM MST 6:05 PM MST
Astronomical Twilight 5:48 AM MST 6:36 PM MST
Moon 7:29 PM MST (12/19) 8:44 AM MST (12/19)
Length of Visible Light 10h 42m
Length of Day
9h 45m
Waning Gibbous, 95% of the Moon is Illuminated
Dec 19
Waning Gibbous
Dec 25
Last Quarter
Jan 1
New
Jan 7
First Quarter
Jan 15
Full

Hourly Weather History & Observations

Time (MST) Temp. Windchill Dew Point Humidity Pressure Visibility Wind Dir Wind Speed Gust Speed Precip Events Conditions
12:53 AM 30.0 °F - 24.1 °F 79% 29.79 in - Calm Calm - N/A   Clear
1:53 AM 28.9 °F - 21.9 °F 75% 29.77 in - Calm Calm - N/A   Clear
2:53 AM 26.1 °F 21.9 °F 19.9 °F 78% 29.79 in - NE 3.5 mph - N/A   Clear
3:53 AM 32.0 °F - 19.0 °F 59% 29.75 in - Calm Calm - N/A   Clear
4:53 AM 34.0 °F 28.0 °F 19.0 °F 54% 29.74 in - South 6.9 mph - N/A   Clear
5:53 AM 33.1 °F 28.7 °F 19.0 °F 56% 29.76 in - South 4.6 mph - N/A   Clear
6:53 AM 34.0 °F 29.8 °F 19.9 °F 56% 29.81 in - South 4.6 mph - N/A   Clear
7:53 AM 36.0 °F - 21.9 °F 57% 29.80 in - Calm Calm - N/A   Clear
8:53 AM 42.1 °F 35.2 °F 23.0 °F 47% 29.76 in - SW 12.7 mph - N/A   Clear
9:53 AM 46.9 °F - 21.0 °F 36% 29.76 in - SW 20.7 mph 27.6 mph N/A   Clear
10:53 AM 48.0 °F - 21.9 °F 36% 29.74 in - SW 23.0 mph 31.1 mph N/A   Clear
11:53 AM 48.9 °F - 21.9 °F 35% 29.69 in - SW 20.7 mph 34.5 mph N/A   Clear
12:53 PM 50.0 °F - 21.0 °F 32% 29.67 in - SW 21.9 mph 28.8 mph N/A   Clear
1:53 PM 51.1 °F - 18.0 °F 27% 29.65 in - SW 18.4 mph 26.5 mph N/A   Clear
2:53 PM 51.1 °F - 18.0 °F 27% 29.67 in - SW 21.9 mph 28.8 mph N/A   Clear
3:53 PM 48.0 °F - 18.0 °F 30% 29.67 in - SW 16.1 mph - N/A   Clear
4:53 PM 46.0 °F 40.2 °F 18.0 °F 33% 29.67 in - WSW 12.7 mph - N/A   Clear
5:53 PM 39.0 °F 34.0 °F 19.9 °F 46% 29.74 in - SSW 6.9 mph - N/A   Clear
6:53 PM 35.1 °F - 19.9 °F 54% 29.78 in - Calm Calm - N/A   Clear
7:53 PM 30.9 °F - 21.0 °F 67% 29.80 in - Calm Calm - N/A   Clear
8:53 PM 30.9 °F 27.5 °F 21.0 °F 67% 29.75 in - SSE 3.5 mph - N/A   Clear
9:53 PM 27.0 °F 21.6 °F 19.9 °F 75% 29.75 in - NE 4.6 mph - N/A   Clear
10:53 PM 25.0 °F 19.3 °F 19.0 °F 78% 29.75 in - ENE 4.6 mph - N/A   Clear
11:53 PM 30.0 °F 23.2 °F 21.9 °F 72% 29.70 in - NE 6.9 mph - N/A   Clear